TimeEDT,TemperatureF,Dew PointF,Humidity,Sea Level PressureIn,VisibilityMPH,Wind Direction,Wind SpeedMPH,Gust SpeedMPH,PrecipitationIn,Events,Conditions,WindDirDegrees,DateUTC
12:15 AM,32.0,28.4,87,30.24,10.0,West,6.9,-,N/A,,Mostly Cloudy,280,2013-03-27 04:15:00
12:35 AM,32.0,26.6,80,30.24,10.0,West,8.1,-,N/A,,Scattered Clouds,280,2013-03-27 04:35:00
12:55 AM,30.2,26.6,86,30.24,10.0,West,8.1,-,N/A,,Clear,280,2013-03-27 04:55:00
1:15 AM,30.2,26.6,86,30.24,10.0,West,6.9,-,N/A,,Clear,280,2013-03-27 05:15:00
1:35 AM,28.4,24.8,86,30.24,10.0,West,6.9,-,N/A,,Clear,270,2013-03-27 05:35:00
1:55 AM,28.4,24.8,86,30.25,10.0,WNW,5.8,-,N/A,,Clear,290,2013-03-27 05:55:00
2:15 AM,30.2,26.6,86,30.25,10.0,WNW,3.5,-,N/A,,Scattered Clouds,290,2013-03-27 06:15:00
2:35 AM,28.4,24.8,86,30.25,10.0,West,3.5,-,N/A,,Overcast,270,2013-03-27 06:35:00
2:55 AM,28.4,24.8,86,30.25,10.0,WSW,6.9,-,N/A,,Scattered Clouds,240,2013-03-27 06:55:00
3:15 AM,28.4,24.8,86,30.25,10.0,SW,8.1,-,N/A,,Clear,230,2013-03-27 07:15:00
3:35 AM,28.4,23.0,80,30.25,10.0,WSW,8.1,-,N/A,,Clear,250,2013-03-27 07:35:00
3:55 AM,26.6,23.0,86,30.25,10.0,West,8.1,-,N/A,,Clear,260,2013-03-27 07:55:00
4:15 AM,23.0,21.2,93,30.25,10.0,West,8.1,-,N/A,,Clear,260,2013-03-27 08:15:00
4:35 AM,23.0,21.2,93,30.25,10.0,West,8.1,-,N/A,,Clear,260,2013-03-27 08:35:00
4:55 AM,23.0,21.2,93,30.25,10.0,WSW,9.2,-,N/A,,Clear,250,2013-03-27 08:55:00
5:15 AM,23.0,21.2,93,30.25,10.0,WSW,9.2,-,N/A,,Clear,250,2013-03-27 09:15:00
5:35 AM,24.8,23.0,93,30.25,10.0,West,4.6,-,N/A,,Clear,280,2013-03-27 09:35:00
5:55 AM,24.8,21.2,86,30.25,10.0,West,8.1,-,N/A,,Clear,260,2013-03-27 09:55:00
6:15 AM,23.0,21.2,93,30.25,10.0,West,6.9,-,N/A,,Clear,260,2013-03-27 10:15:00
6:35 AM,23.0,21.2,93,30.25,10.0,WSW,8.1,-,N/A,,Clear,250,2013-03-27 10:35:00
6:55 AM,21.2,19.4,93,30.26,10.0,WSW,6.9,-,N/A,,Clear,250,2013-03-27 10:55:00
7:15 AM,23.0,21.2,93,30.26,10.0,WSW,6.9,-,N/A,,Clear,250,2013-03-27 11:15:00
7:35 AM,21.2,19.4,93,30.26,10.0,WSW,6.9,-,N/A,,Clear,250,2013-03-27 11:35:00
7:55 AM,23.0,21.2,93,30.27,10.0,WSW,6.9,-,N/A,,Clear,250,2013-03-27 11:55:00
8:15 AM,23.0,21.2,93,30.28,10.0,WSW,6.9,-,N/A,,Clear,250,2013-03-27 12:15:00
8:35 AM,23.0,21.2,93,30.28,10.0,West,6.9,-,N/A,,Clear,260,2013-03-27 12:35:00
8:55 AM,26.6,23.0,86,30.29,10.0,WSW,5.8,-,N/A,,Clear,250,2013-03-27 12:55:00
9:15 AM,26.6,23.0,86,30.29,10.0,West,6.9,-,N/A,,Clear,260,2013-03-27 13:15:00
9:35 AM,28.4,24.8,86,30.30,10.0,West,6.9,-,N/A,,Clear,260,2013-03-27 13:35:00
9:55 AM,30.2,26.6,86,30.30,10.0,West,5.8,-,N/A,,Clear,260,2013-03-27 13:55:00
10:15 AM,32.0,26.6,80,30.30,10.0,West,6.9,-,N/A,,Clear,260,2013-03-27 14:15:00
10:55 AM,33.8,26.6,75,30.31,10.0,West,6.9,-,N/A,,Clear,260,2013-03-27 14:55:00
11:15 AM,33.8,26.6,75,30.31,10.0,WSW,6.9,-,N/A,,Clear,240,2013-03-27 15:15:00
11:35 AM,35.6,28.4,75,30.31,10.0,WSW,5.8,-,N/A,,Clear,250,2013-03-27 15:35:00
11:55 AM,35.6,28.4,75,30.30,10.0,SW,5.8,-,N/A,,Clear,230,2013-03-27 15:55:00
12:15 PM,35.6,28.4,75,30.31,10.0,SW,8.1,-,N/A,,Clear,230,2013-03-27 16:15:00
12:35 PM,35.6,28.4,75,30.31,10.0,SW,5.8,-,N/A,,Clear,220,2013-03-27 16:35:00
12:55 PM,37.4,28.4,70,30.31,10.0,West,10.4,-,N/A,,Clear,260,2013-03-27 16:55:00
1:15 PM,37.4,28.4,70,30.31,10.0,West,10.4,-,N/A,,Clear,260,2013-03-27 17:15:00
1:35 PM,37.4,28.4,70,30.31,10.0,West,9.2,-,N/A,,Clear,270,2013-03-27 17:35:00
1:55 PM,37.4,28.4,70,30.31,10.0,West,9.2,-,N/A,,Clear,260,2013-03-27 17:55:00
2:15 PM,39.2,30.2,70,30.31,10.0,WSW,10.4,-,N/A,,Scattered Clouds,250,2013-03-27 18:15:00
2:35 PM,39.2,30.2,70,30.31,10.0,WSW,11.5,-,N/A,,Mostly Cloudy,250,2013-03-27 18:35:00
2:55 PM,37.4,28.4,70,30.31,10.0,West,4.6,-,N/A,,Overcast,280,2013-03-27 18:55:00
3:15 PM,35.6,28.4,75,30.30,10.0,West,11.5,16.1,N/A,,Overcast,270,2013-03-27 19:15:00
3:55 PM,37.4,26.6,65,30.29,10.0,West,13.8,-,N/A,,Overcast,270,2013-03-27 19:55:00
4:15 PM,37.4,26.6,65,30.29,10.0,West,10.4,-,N/A,,Overcast,270,2013-03-27 20:15:00
4:35 PM,37.4,26.6,65,30.29,10.0,West,12.7,-,N/A,,Mostly Cloudy,270,2013-03-27 20:35:00
4:55 PM,37.4,28.4,70,30.29,10.0,West,11.5,-,N/A,,Scattered Clouds,260,2013-03-27 20:55:00
5:15 PM,37.4,26.6,65,30.29,10.0,West,12.7,-,N/A,,Scattered Clouds,270,2013-03-27 21:15:00
5:35 PM,37.4,26.6,65,30.29,10.0,West,10.4,18.4,N/A,,Overcast,270,2013-03-27 21:35:00
5:55 PM,35.6,26.6,70,30.29,10.0,West,9.2,-,N/A,,Overcast,270,2013-03-27 21:55:00
6:15 PM,35.6,28.4,75,30.29,10.0,West,9.2,-,N/A,,Overcast,270,2013-03-27 22:15:00
6:35 PM,35.6,26.6,70,30.29,10.0,West,10.4,-,N/A,,Overcast,270,2013-03-27 22:35:00
6:55 PM,35.6,26.6,70,30.29,10.0,West,10.4,-,N/A,,Overcast,260,2013-03-27 22:55:00
7:15 PM,35.6,26.6,70,30.30,10.0,West,10.4,-,N/A,,Overcast,260,2013-03-27 23:15:00
7:35 PM,35.6,26.6,70,30.29,10.0,West,10.4,-,N/A,,Overcast,260,2013-03-27 23:35:00
7:55 PM,35.6,26.6,70,30.30,10.0,West,11.5,-,N/A,,Overcast,260,2013-03-27 23:55:00
8:15 PM,33.8,24.8,70,30.30,10.0,WSW,9.2,-,N/A,,Overcast,250,2013-03-28 00:15:00
8:35 PM,33.8,26.6,75,30.29,10.0,WSW,9.2,-,N/A,,Overcast,250,2013-03-28 00:35:00
8:55 PM,33.8,26.6,75,30.29,10.0,WSW,6.9,-,N/A,,Overcast,250,2013-03-28 00:55:00
9:15 PM,33.8,26.6,75,30.30,10.0,West,9.2,-,N/A,,Overcast,260,2013-03-28 01:15:00
9:35 PM,33.8,26.6,75,30.30,10.0,WSW,8.1,-,N/A,,Overcast,250,2013-03-28 01:35:00
9:55 PM,33.8,26.6,75,30.31,10.0,WSW,8.1,-,N/A,,Overcast,250,2013-03-28 01:55:00
10:15 PM,32.0,26.6,80,30.31,10.0,West,3.5,-,N/A,,Overcast,270,2013-03-28 02:15:00
10:35 PM,33.8,26.6,75,30.31,10.0,Calm,Calm,-,N/A,,Overcast,0,2013-03-28 02:35:00
10:55 PM,33.8,24.8,70,30.31,10.0,Calm,Calm,-,N/A,,Overcast,0,2013-03-28 02:55:00
11:15 PM,32.0,26.6,80,30.31,10.0,West,4.6,-,N/A,,Overcast,260,2013-03-28 03:15:00
11:35 PM,32.0,26.6,80,30.31,10.0,West,3.5,-,N/A,,Overcast,260,2013-03-28 03:35:00
11:55 PM,32.0,26.6,80,30.31,10.0,Calm,Calm,-,N/A,,Overcast,0,2013-03-28 03:55:00